Вернуться в каталог

BREEZE-M DEB

TANK

АктивенHEO
NORAD 36794·DEBRIS·🇷🇺 Russia

Запущен Jul 10, 2010 с Baikonur Cosmodrome

Loading…

Ближайшие Пролёты (ближайшие 24 часа)

TLE

СвежийSource: Space-Track

Эпоха: Sep 14, 2026, 00:27 UTC

1 36794U 10034C   26257.01930041  .00005182  00000-0  12336-2 0  9990
2 36794  49.4726 156.2145 5392593 184.2147 168.2961  4.96005282280010

Отслеживайте BREEZE-M DEB в реальном времени с AllMySat

Download on the App Store